Location: El Limón
(10.3059°N, 67.6321°W)
Time: 17:27:36
(UTC+00:00)

Nadezhda 2 Rocket - Pass Details

Date: 22 December 2025
Orbit: 946 x 1011 km, 83.0° (Epoch: 11 January)

Event Time Altitude Azimuth Distance (km) Brightness Sun altitude
Rises 09:52:41 0° 165° (SSE) 3,715 8.1 -12.4°
Reaches altitude 10° 09:55:26 10° 157° (SSE) 2,758 7.5 -11.8°
Maximum altitude 10:01:10 37° 92° (E) 1,479 6.2 -10.4°
Drops below altitude 10° 10:06:50 10° 26° (NNE) 2,717 6.9 -9.2°
Sets 10:09:29 0° 19° (NNE) 3,654 7.5 -8.6°
